TimeMST,TemperatureF,Dew PointF,Humidity,Sea Level PressureIn,VisibilityMPH,Wind Direction,Wind SpeedMPH,Gust SpeedMPH,PrecipitationIn,Events,Conditions,WindDirDegrees,DateUTC
12:13 AM,31.8,25.0,76,29.99,10.0,NW,6.9,-,N/A,,Clear,320,2013-03-08 07:13:00
12:33 AM,32.2,24.8,74,29.99,10.0,NNW,3.5,-,N/A,,Clear,340,2013-03-08 07:33:00
12:53 AM,31.3,24.6,76,29.98,10.0,North,10.4,-,N/A,,Clear,360,2013-03-08 07:53:00
1:13 AM,31.6,25.0,76,29.98,10.0,NNW,5.8,-,N/A,,Clear,340,2013-03-08 08:13:00
1:33 AM,33.4,25.5,73,29.96,10.0,NNW,5.8,-,N/A,,Clear,340,2013-03-08 08:33:00
1:53 AM,33.4,24.8,71,29.95,10.0,North,8.1,-,N/A,,Clear,360,2013-03-08 08:53:00
2:13 AM,30.7,24.3,77,29.95,10.0,NW,5.8,-,N/A,,Clear,320,2013-03-08 09:13:00
2:33 AM,30.2,24.1,78,29.94,10.0,NW,6.9,-,N/A,,Clear,320,2013-03-08 09:33:00
2:53 AM,31.5,24.4,75,29.94,10.0,NW,8.1,-,N/A,,Clear,320,2013-03-08 09:53:00
3:13 AM,31.5,23.9,74,29.94,10.0,WNW,8.1,-,N/A,,Clear,290,2013-03-08 10:13:00
3:33 AM,30.0,22.6,74,29.94,10.0,West,4.6,-,N/A,,Clear,270,2013-03-08 10:33:00
3:53 AM,29.8,22.6,75,29.94,10.0,WNW,5.8,-,N/A,,Clear,290,2013-03-08 10:53:00
4:13 AM,31.6,22.1,68,29.94,10.0,West,6.9,-,N/A,,Clear,280,2013-03-08 11:13:00
4:33 AM,35.1,20.8,56,29.94,10.0,Calm,Calm,-,N/A,,Clear,0,2013-03-08 11:33:00
4:53 AM,33.1,22.1,64,29.94,10.0,North,5.8,-,N/A,,Clear,10,2013-03-08 11:53:00
5:13 AM,34.0,22.5,63,29.94,10.0,NNE,11.5,-,N/A,,Scattered Clouds,20,2013-03-08 12:13:00
5:33 AM,33.3,23.0,66,29.93,10.0,North,5.8,-,N/A,,Scattered Clouds,350,2013-03-08 12:33:00
5:53 AM,35.1,19.2,53,29.92,10.0,North,8.1,-,N/A,,Scattered Clouds,360,2013-03-08 12:53:00
6:13 AM,32.4,21.0,63,29.92,10.0,North,5.8,-,N/A,,Scattered Clouds,350,2013-03-08 13:13:00
6:33 AM,33.3,21.6,62,29.92,10.0,North,9.2,-,N/A,,Mostly Cloudy,350,2013-03-08 13:33:00
6:53 AM,34.2,22.5,62,29.92,10.0,NNW,4.6,-,N/A,,Overcast,330,2013-03-08 13:53:00
7:13 AM,37.2,21.9,54,29.91,10.0,North,8.1,-,N/A,,Scattered Clouds,360,2013-03-08 14:13:00
7:33 AM,43.3,20.3,40,29.92,10.0,North,9.2,-,N/A,,Clear,360,2013-03-08 14:33:00
7:47 AM,44.8,20.3,38,29.92,10.0,North,10.4,-,N/A,,Scattered Clouds,10,2013-03-08 14:47:00
8:07 AM,50.4,20.3,31,29.92,10.0,North,10.4,-,N/A,,Scattered Clouds,10,2013-03-08 15:07:00
8:28 AM,50.5,16.5,26,29.92,10.0,ENE,3.5,-,N/A,,Clear,60,2013-03-08 15:28:00
8:48 AM,50.9,22.1,32,29.91,10.0,NE,5.8,-,N/A,,Clear,50,2013-03-08 15:48:00
9:06 AM,51.4,19.6,29,29.91,10.0,ENE,6.9,-,N/A,,Clear,60,2013-03-08 16:06:00
9:27 AM,49.3,23.5,36,29.91,10.0,ENE,8.1,-,N/A,,Clear,60,2013-03-08 16:27:00
10:07 AM,49.6,23.4,36,29.90,10.0,ENE,9.2,-,N/A,,Clear,70,2013-03-08 17:07:00
10:27 AM,50.0,23.5,36,29.90,10.0,East,8.1,-,N/A,,Clear,90,2013-03-08 17:27:00
10:47 AM,49.3,24.3,38,29.90,10.0,ESE,8.1,17.3,N/A,,Clear,110,2013-03-08 17:47:00
11:07 AM,50.2,24.4,37,29.89,10.0,SSE,6.9,-,N/A,,Clear,150,2013-03-08 18:07:00
11:28 AM,50.4,23.9,36,29.88,10.0,South,11.5,-,N/A,,Clear,170,2013-03-08 18:28:00
11:48 AM,50.2,25.3,38,29.87,10.0,SSE,10.4,-,N/A,,Clear,160,2013-03-08 18:48:00
12:08 PM,50.9,23.7,35,29.86,10.0,SE,9.2,-,N/A,,Clear,140,2013-03-08 19:08:00
12:26 PM,49.8,23.7,36,29.84,10.0,SSE,10.4,16.1,N/A,,Clear,160,2013-03-08 19:26:00
12:48 PM,51.3,22.8,33,29.83,10.0,South,12.7,16.1,N/A,,Clear,170,2013-03-08 19:48:00
1:08 PM,51.6,20.7,30,29.82,10.0,South,9.2,-,N/A,,Clear,180,2013-03-08 20:08:00
1:28 PM,51.3,22.5,32,29.81,10.0,South,12.7,17.3,N/A,,Clear,170,2013-03-08 20:28:00
1:48 PM,55.8,23.7,29,29.80,10.0,South,13.8,20.7,N/A,,Clear,170,2013-03-08 20:48:00
2:08 PM,56.5,26.6,32,29.79,10.0,SE,15.0,23.0,N/A,,Clear,130,2013-03-08 21:08:00
2:27 PM,54.9,27.0,34,29.78,10.0,SE,12.7,25.3,N/A,,Clear,130,2013-03-08 21:27:00
2:47 PM,51.6,26.2,37,29.79,10.0,ESE,13.8,23.0,N/A,,Clear,120,2013-03-08 21:47:00
3:07 PM,51.1,27.5,40,29.78,10.0,ESE,16.1,19.6,N/A,,Clear,120,2013-03-08 22:07:00
3:27 PM,51.4,27.5,40,29.78,10.0,ESE,15.0,19.6,N/A,,Clear,120,2013-03-08 22:27:00
3:47 PM,53.1,28.4,39,29.77,10.0,ESE,8.1,-,N/A,,Clear,110,2013-03-08 22:47:00
4:07 PM,50.4,28.4,43,29.78,10.0,ESE,16.1,-,N/A,,Clear,120,2013-03-08 23:07:00
4:26 PM,50.5,29.3,44,29.77,10.0,ESE,10.4,-,N/A,,Scattered Clouds,110,2013-03-08 23:26:00
4:47 PM,50.0,23.5,36,29.76,10.0,South,11.5,-,N/A,,Scattered Clouds,180,2013-03-08 23:47:00
5:07 PM,48.7,25.3,40,29.76,10.0,South,13.8,-,N/A,,Clear,180,2013-03-09 00:07:00
5:29 PM,46.8,25.7,44,29.74,10.0,South,10.4,-,N/A,,Clear,170,2013-03-09 00:29:00
5:48 PM,45.5,26.6,48,29.75,10.0,South,8.1,-,N/A,,Clear,190,2013-03-09 00:48:00
6:08 PM,42.8,26.8,53,29.75,10.0,East,6.9,-,N/A,,Clear,100,2013-03-09 01:08:00
6:28 PM,42.3,28.2,58,29.75,10.0,ESE,11.5,16.1,N/A,,Clear,110,2013-03-09 01:28:00
6:47 PM,41.7,28.4,59,29.75,10.0,SE,6.9,-,N/A,,Clear,130,2013-03-09 01:47:00
7:08 PM,40.3,28.4,63,29.74,10.0,SE,5.8,-,N/A,,Clear,130,2013-03-09 02:08:00
7:27 PM,39.6,28.2,64,29.72,10.0,East,8.1,-,N/A,,Clear,90,2013-03-09 02:27:00
7:47 PM,39.0,28.9,67,29.72,10.0,NE,8.1,-,N/A,,Scattered Clouds,50,2013-03-09 02:47:00
8:07 PM,39.4,29.3,67,29.73,10.0,NNE,6.9,-,N/A,,Scattered Clouds,20,2013-03-09 03:07:00
8:28 PM,39.2,30.6,71,29.72,10.0,NE,8.1,-,N/A,,Mostly Cloudy,40,2013-03-09 03:28:00
8:48 PM,38.5,31.1,75,29.72,10.0,NE,9.2,-,N/A,,Scattered Clouds,40,2013-03-09 03:48:00
9:08 PM,37.8,30.7,76,29.71,10.0,North,9.2,-,N/A,,Scattered Clouds,360,2013-03-09 04:08:00
9:28 PM,38.3,30.4,73,29.71,10.0,NNE,10.4,-,N/A,,Overcast,20,2013-03-09 04:28:00
9:47 PM,37.4,30.2,75,29.71,10.0,NNE,10.4,18.4,N/A,,Mostly Cloudy,20,2013-03-09 04:47:00
10:07 PM,35.2,30.6,83,29.70,10.0,North,12.7,-,N/A,,Scattered Clouds,360,2013-03-09 05:07:00
10:27 PM,33.4,31.1,91,29.69,7.0,North,16.1,-,N/A,,Clear,350,2013-03-09 05:27:00
10:53 PM,33.3,31.1,92,29.66,7.0,North,12.7,-,N/A,,Clear,360,2013-03-09 05:53:00
11:13 PM,33.1,30.7,91,29.66,5.0,North,13.8,-,N/A,,Clear,350,2013-03-09 06:13:00
11:33 PM,32.9,30.6,91,29.65,5.0,North,13.8,-,N/A,,Clear,350,2013-03-09 06:33:00
11:53 PM,33.1,30.7,91,29.65,5.0,NNW,12.7,-,N/A,,Clear,340,2013-03-09 06:53:00